Date String (YYYY-MM-DD hh:mm:ss) UTC,Instrument flags,Ambient pressure (hPa),Sample flow (lpm),Bypass flow (lpm),Sample temperature (°C),Ambient temperature (°C),ASC tube jacket temperature (°C),LED temperature (°C),Box temperature (°C),Sample RH (%),Span deviation,Mass concentration (μg/m³),Mass concentration (μg/m³),Mass concentration (μg/m³)
DateTimeUTC,F1_M11,P_M11,Q1_M11,Q2_M11,T1_M11,T2_M11,T3_M11,T4_M11,T5_M11,U1_M11,ZSPAN_M11,X2_M11,X0_M11,X1_M11
2022-09-16 10:00:00,,0826.8,5.01,0.00,30.4,28.9,00.0,39.2,32.2,23.4,0000.0,0003.93,0008.58,0003.48
2022-09-16 10:01:00,,0826.8,5.00,0.00,30.4,28.8,00.0,39.3,32.1,23.4,0000.0,0003.97,0008.65,0003.50
2022-09-16 10:02:00,,0826.9,4.99,0.00,30.4,28.8,00.0,39.2,32.1,23.4,0000.0,0004.01,0008.61,0003.51
2022-09-16 10:03:00,,0827.0,5.01,0.00,30.4,28.8,00.0,39.2,32.2,23.4,0000.0,0004.02,0009.14,0003.51
2022-09-16 10:04:00,,0827.1,5.00,0.00,30.4,28.8,00.0,39.2,32.1,23.3,0000.0,0004.03,0009.03,0003.53
2022-09-16 10:05:00,,0827.0,5.00,0.00,30.4,28.8,00.0,39.2,32.1,23.4,0000.0,0004.04,0008.67,0003.54
2022-09-16 10:06:00,,0826.9,5.00,0.00,30.4,28.8,00.0,39.2,32.1,23.5,0000.0,0004.06,0008.71,0003.55
2022-09-16 10:07:00,,0827.1,4.99,0.00,30.4,28.8,00.0,39.2,32.1,23.5,0000.0,0004.03,0008.65,0003.57
2022-09-16 10:08:00,,0827.0,5.01,0.00,30.4,28.8,00.0,39.2,32.1,23.5,0000.0,0004.06,0009.07,0003.58
2022-09-16 10:09:00,,0827.0,5.01,0.00,30.4,28.8,00.0,39.2,32.1,23.6,0000.0,0004.09,0009.37,0003.60
2022-09-16 10:10:00,,0826.8,4.99,0.00,30.4,28.8,00.0,39.2,32.1,23.6,0000.0,0004.16,0009.59,0003.63
2022-09-16 10:11:00,,0826.9,5.02,0.00,30.4,28.8,00.0,39.2,32.1,23.6,0000.0,0004.20,0009.59,0003.65
2022-09-16 10:12:00,,0827.0,4.99,0.00,30.4,28.8,00.0,39.2,32.1,23.7,0000.0,0004.21,0009.67,0003.66
2022-09-16 10:13:00,,0827.1,5.01,0.00,30.4,28.8,00.0,39.2,32.1,23.8,0000.0,0004.21,0009.75,0003.67
2022-09-16 10:14:00,,0827.1,5.01,0.00,30.4,28.8,00.0,39.2,32.1,23.9,0000.0,0004.25,0009.10,0003.69
2022-09-16 10:15:00,,0826.9,4.99,0.00,30.4,28.8,00.0,39.2,32.1,24.1,0000.0,0004.31,0008.99,0003.71
2022-09-16 10:16:00,,0827.1,5.01,0.00,30.4,28.8,00.0,39.2,32.1,24.2,0000.0,0004.40,0009.50,0003.76
2022-09-16 10:17:00,,0826.9,5.00,0.00,30.4,28.8,00.0,39.2,32.1,24.1,0000.0,0004.40,0010.16,0003.78
2022-09-16 10:18:00,,0826.8,5.00,0.00,30.4,28.8,00.0,39.2,32.1,24.2,0000.0,0004.44,0010.43,0003.80
2022-09-16 10:19:00,,0826.8,5.01,0.00,30.4,28.7,00.0,39.2,32.1,24.4,0000.0,0004.45,0010.14,0003.83
2022-09-16 10:20:00,,0826.9,4.98,0.00,30.4,28.7,00.0,39.2,32.1,24.4,0000.0,0004.47,0009.94,0003.86
2022-09-16 10:21:00,,0827.1,5.00,0.00,30.4,28.8,00.0,39.2,32.1,24.3,0000.0,0004.47,0009.86,0003.87
2022-09-16 10:22:00,,0827.2,5.01,0.00,30.4,28.8,00.0,39.2,32.1,24.4,0000.5,0004.54,0009.95,0003.89
2022-09-16 10:23:00,,0826.8,5.01,0.00,30.4,28.7,00.0,39.2,32.1,24.5,0001.1,0004.60,0010.03,0003.92
2022-09-16 10:24:00,,0827.1,4.99,0.00,30.4,28.8,00.0,39.2,32.1,24.6,0001.4,0004.65,0010.02,0003.95
2022-09-16 10:25:00,,0826.8,5.01,0.00,30.4,28.8,00.0,39.2,32.1,24.5,0001.8,0004.64,0009.98,0003.96
2022-09-16 10:26:00,,0827.1,5.00,0.00,30.4,28.8,00.0,39.2,32.1,24.2,0002.3,0004.60,0009.88,0003.97
2022-09-16 10:27:00,,0827.0,5.00,0.00,30.4,28.8,00.0,39.2,32.1,24.1,0002.7,0004.57,0009.54,0003.96
2022-09-16 10:28:00,,0827.2,5.01,0.00,30.4,28.7,00.0,39.2,32.1,23.9,0002.7,0004.53,0008.82,0003.96
2022-09-16 10:29:00,,0827.1,4.99,0.00,30.4,28.8,00.0,39.2,32.1,23.8,0002.5,0004.48,0008.46,0003.94
2022-09-16 10:30:00,,0827.0,5.01,0.00,30.4,28.7,00.0,39.2,32.1,23.8,0002.5,0004.50,0008.28,0003.92
2022-09-16 10:31:00,,0827.1,5.00,0.00,30.4,28.8,00.0,39.2,32.1,23.8,0002.5,0004.48,0008.27,0003.89
2022-09-16 10:32:00,,0827.3,5.00,0.00,30.4,28.7,00.0,39.2,32.1,23.7,0002.9,0004.46,0008.21,0003.88
2022-09-16 10:33:00,,0827.3,4.99,0.00,30.4,28.8,00.0,39.2,32.1,23.7,0003.0,0004.41,0008.28,0003.85
2022-09-16 10:34:00,,0827.5,5.00,0.00,30.4,28.8,00.0,39.2,32.1,23.7,0003.0,0004.34,0008.64,0003.83
2022-09-16 10:35:00,,0827.0,5.00,0.00,30.4,28.8,00.0,39.2,32.1,23.8,0003.1,0004.29,0008.64,0003.80
2022-09-16 10:36:00,,0827.0,4.99,0.00,30.4,28.8,00.0,39.2,32.1,24.0,0003.4,0004.28,0008.63,0003.78
2022-09-16 10:37:00,,0827.0,5.01,0.00,30.4,28.8,00.0,39.2,32.1,24.0,0001.6,0004.30,0008.91,0003.77
2022-09-16 10:38:00,,0826.8,4.99,0.00,30.4,28.8,00.0,39.2,32.1,24.1,0003.2,0004.28,0009.27,0003.75
2022-09-16 10:39:00,,0826.8,5.01,0.00,30.4,28.8,00.0,39.2,32.1,24.0,0002.9,0004.31,0009.51,0003.74
2022-09-16 10:40:00,,0826.8,4.99,0.00,30.4,28.8,00.0,39.2,32.1,24.1,0002.5,0004.36,0009.62,0003.75
2022-09-16 10:41:00,,0826.8,5.00,0.00,30.4,28.8,00.0,39.2,32.1,24.3,0002.1,0004.36,0009.61,0003.77
2022-09-16 10:42:00,,0826.8,5.00,0.00,30.4,28.8,00.0,39.2,32.1,24.3,0001.8,0004.37,0009.67,0003.78
2022-09-16 10:43:00,,0826.8,5.00,0.00,30.4,28.7,00.0,39.1,32.1,24.4,0001.4,0004.41,0010.06,0003.79
2022-09-16 10:44:00,,0826.8,5.00,0.00,30.3,28.7,00.0,39.2,32.1,24.6,0001.4,0004.41,0010.41,0003.82
2022-09-16 10:45:00,,0826.8,4.99,0.00,30.3,28.7,00.0,39.2,32.1,24.7,0000.4,0004.44,0010.33,0003.84
2022-09-16 10:46:00,,0826.7,5.00,0.00,30.3,28.7,00.0,39.2,32.1,24.8,0000.2,0004.47,0010.00,0003.87
2022-09-16 10:47:00,,0826.8,5.00,0.00,30.3,28.7,00.0,39.1,32.1,24.8,0001.4,0004.49,0010.03,0003.91
2022-09-16 10:48:00,,0826.7,4.99,0.00,30.3,28.8,00.0,39.1,32.1,24.8,0002.0,0004.51,0010.26,0003.94
2022-09-16 10:49:00,,0826.7,5.00,0.00,30.3,28.7,00.0,39.1,32.1,24.8,0001.9,0004.56,0009.76,0003.97
2022-09-16 10:50:00,,0826.7,5.01,0.00,30.3,28.7,00.0,39.1,32.1,24.7,0001.9,0004.57,0009.28,0004.00
2022-09-16 10:51:00,,0826.7,4.99,0.00,30.3,28.8,00.0,39.1,32.1,24.5,0002.0,0004.55,0009.13,0004.01
2022-09-16 10:52:00,,0826.7,5.01,0.00,30.3,28.7,00.0,39.1,32.1,24.2,0002.4,0004.54,0009.32,0004.02
2022-09-16 10:53:00,,0826.7,5.01,0.00,30.3,28.7,00.0,39.1,32.1,23.8,0002.7,0004.53,0009.88,0004.02
2022-09-16 10:54:00,,0826.7,4.99,0.00,30.3,28.7,00.0,39.1,32.1,23.6,0002.8,0004.50,0009.86,0004.00
2022-09-16 10:55:00,,0826.7,5.01,0.00,30.3,28.8,00.0,39.1,32.1,23.7,0001.8,0004.46,0009.33,0003.97
2022-09-16 10:56:00,,0826.7,4.99,0.00,30.3,28.8,00.0,39.1,32.1,23.8,0000.0,0004.48,0009.36,0003.94
2022-09-16 10:57:00,,0826.8,5.02,0.00,30.3,28.7,00.0,39.1,32.0,23.8,0002.6,0004.47,0009.50,0003.91
2022-09-16 10:58:00,,0826.7,4.99,0.00,30.3,28.7,00.0,39.1,32.1,23.8,0002.0,0004.43,0009.42,0003.88
2022-09-16 10:59:00,,0826.7,5.00,0.00,30.3,28.7,00.0,39.1,32.1,23.7,0000.0,0004.38,0009.03,0003.84
